Home > Time Zones > World Clock > Weather > U.S.A. > Waco > Past weeks

Flag Weather past 2 weeks in Waco, Texas, U.S.A.

Now
78 °F

Sunny.


Feels Like: 78 °F
Forecast: 51 / 74 °F
Wind: 17 mph from West

Location: Waco Regional Airport

Current Time: Nov 23, 2014 at 3:23:14 PM

Latest Report: Nov 23, 2014 at 2:51 PM


Visibility: 10 mi

Pressure: 29.44 "Hg

Humidity: 25%

Dew point: 40 °F

Location of WacoLocation

Historic Weather in Waco — Graph

°F

Waco temperature yesterday

Maximum temperature yesterday: 67 °F (at 12:51 PM)
Minimum temperature yesterday: 57 °F (at 10:51 PM)
Average temperature yesterday: 62 °F

Past Weeks' High & Low Weather Summary

 TemperatureHumidityPressure
High77 °F (Nov 10, 1:51 PM)100% (Nov 15, 11:51 PM)30.60 "Hg (Nov 15, 11:51 PM)
Low22 °F (Nov 18, 6:51 AM)21% (Nov 18, 3:51 PM)29.44 "Hg (Nov 23, 1:51 PM)
Average49 °F66%30.15 "Hg
* Reported Nov 8 1:51 PM — Nov 23 1:51 PM, Waco, Weather by CustomWeather, © 2014

Note: Actual official high and low records may vary slightly from our data, if they occured in-between our weather recording intervals... More about our weather records

Advertising

Waco weather history for previous 24 hours

 ConditionsComfort  
Time TempWeatherWind HumidityBarometerVisibility
1:51 PM
Nov 23
77 °FSunny.16 mph29%29.44 "Hg10 mi
12:51 PM74 °FSunny.17 mph36%29.45 "Hg10 mi
11:51 AM72 °FSunny.15 mph43%29.49 "Hg10 mi
10:51 AM69 °FSunny.17 mph51%29.55 "Hg10 mi
9:51 AM63 °FSunny.14 mph75%29.57 "Hg10 mi
8:51 AM58 °FSunny.13 mph93%29.60 "Hg10 mi
7:51 AM54 °FSunny.9 mph97%29.61 "Hg10 mi
6:51 AM53 °FClear.8 mph96%29.62 "Hg10 mi
6:03 AM52 °FFog.6 mph97%29.62 "Hg1 mi
5:51 AM50 °FFog.5 mph100%29.61 "Hg1 mi
4:51 AM53 °FPassing clouds.3 mph100%29.63 "Hg10 mi
3:58 AM56 °FPassing clouds.3 mph97%29.66 "Hg10 mi
2:51 AM57 °FPassing clouds.3 mph93%29.65 "Hg10 mi
1:51 AM57 °FPassing clouds.5 mph96%29.64 "Hg10 mi
12:51 AM57 °FClear.5 mph93%29.61 "Hg10 mi
11:51 PM
Nov 22
57 °FClear.7 mph93%29.65 "Hg10 mi
10:51 PM57 °FLight rain. Passing clouds.5 mph96%29.74 "Hg10 mi
10:02 PM58 °FThunderstorms. Overcast.6 mph93%29.82 "Hg10 mi
9:51 PM58 °FLight rain. Mostly cloudy.9 mph93%29.80 "Hg10 mi
8:56 PM60 °FLight rain. Mostly cloudy.13 mph96%29.81 "Hg9 mi
7:51 PM60 °FPassing clouds.7 mph96%29.78 "Hg7 mi
6:51 PM61 °FPartly cloudy.9 mph97%29.81 "Hg8 mi
5:51 PM61 °FLight rain. Low clouds.5 mph97%29.80 "Hg10 mi
4:51 PM62 °FThundershowers. Mostly cloudy.8 mph93%29.85 "Hg9 mi
3:51 PM63 °FHeavy rain. Fog.7 mph90%29.85 "Hg3 mi
Weather by CustomWeather, © 2014

See weather overviewHow to use our weather pages